Weather in Chupa

Russia / Republic of Karelia     66°16′11″N   33°03′05″E
temp.,
°C
wind,
m/s
gust,
m/s
humid.,
%
clouds,
%
prec.,
mm/h
press.,
hPa
HPBL,
m
27 february, sat
sat2700:00−6nnw229564 0.0 100321
03:00−6nw379575 0.0 1007151
06:00−5nnw37930 0.0 1008165
09:00−5nw310900 0.0 1012230
12:00−2nw49870 0.0 1013413
15:00−1wnw37880 0.0 1014337
18:00−4w38940 0.0 1012164
21:00−7w23930 0.0 101255
28 february, sun
sun2800:00−6wsw239090 0.0 100952
03:00−5ssw269095 0.0 1009150
06:00−6sw279498 0.0 1007164
09:00−6wsw249598 0.0 1008106
12:00−3w249297 0.0 1008251
15:000w379355 0.0 1009317
18:00−2wsw389338 0.0 1010166
21:00−2wsw488968 0.0 1009202
1 march, mon
mon100:000wsw4108985 0.0 1006291
03:00+1wsw5139292 0.0 1004544
06:00+2w51588100 0.0 1001734
09:00+2w51288100 0.0 1001645
12:00+2wnw5138367 0.0 1000754
15:00+2w5128633 0.0 999808
18:00−1w4118333 0.0 998361
21:00−2w4158450 0.0 997721
2 march, tue
tue200:000w6167982 0.0 9951205
03:000nw8177986 0.1 9971109
06:00−3nw6157891 0.0 1001860
09:00−4nw5148256 0.0 1005704
12:00−2nw5108733 0.1 10071062
15:00−2nw5127639 0.1 10081071
18:00−4nw4118768 0.0 1009537
21:00−6nw4148634 0.1 1011615
3 march, wed
wed300:00−7nw411840 0.0 1013338
03:00−7nw413880 0.0 1014377
06:00−9w36930 0.0 1014115
09:00−8wnw399331 0.0 1014209
12:00−5w3690100 0.0 1013276
15:00−3wsw3689100 0.0 1010286
18:00−4ssw3991100 0.0 1005307
21:00−2sw51196100 1.0 999742